sat.trackr.live / text

‹ back to catalog

STARLINK-3651

NORAD 51985 · 2022-025AF

PAYLOAD ACTIVE UNKNOWN

§ Identity

Operator
Country
US
Launch date
2022-03-09
Launch site
AFETR
Launch vehicle
Mass (kg)
RCS (m²)

Purposes: comms

External: N2YO · Heavens-Above · Gunter

§ Orbital elements

Epoch: 2026-09-20T04:49:28.881408Z

Period
94.01 min
Inclination
53.1599°
Eccentricity
0.0001181
Mean motion
15.31703282 rev/d
Perigee alt
469.9 km
Apogee alt
471.5 km
Semi-major
6,848.9 km
B*
2.2689e-5
RAAN
233.1792°
Arg perigee
83.3378°
Mean anomaly
276.7758°
Rev number
25,059

§ Raw data

STARLINK-36511 51985U 22025AF  26263.20102872  .00000339  00000+0  22689-4 0  99952 51985  53.1599 233.1792 0001181  83.3378 276.7758 15.31703282250597

JSON: /api/v1/satellites/51985 · /tle

For live sub-satellite position, see the globe view (requires WebGL).

§ Visibility from observer

Set your observer location to see the next 7 days of passes ≥ 10°. The values pass through the URL so the page stays shareable.

No JS? Fill the form by hand. The geolocation button needs JavaScript.